Location: Unspecified
(0.0000°N, 0.0000°E)
Time: 22:14:38
(UTC+00:00)

deb Explorer IX - Visible Passes

Search period start: 27 October 2021 00:00
Search period end: 06 November 2021 00:00
Orbit: 545 x 1089 km, 38.8° (Epoch: 27 October)

Date Brightness Start Highest point End Pass type
(mag) Time Alt. Az. Time Alt. Az. Time Alt. Az.
27 Oct ? 20:21:55 10° SSW 20:23:11 16° SSW 20:23:11 16° SSW visible
28 Oct ? 19:57:24 10° SSW 20:00:06 23° S 20:00:06 23° S visible
29 Oct ? 19:32:55 10° SSW 19:37:05 29° SSE 19:37:05 29° SSE visible
30 Oct ? 19:08:26 10° SSW 19:13:21 29° SE 19:14:06 28° SE visible
30 Oct ? 20:54:20 10° WSW 20:55:19 15° WSW 20:55:19 15° WSW visible
31 Oct ? 18:43:56 10° SSW 18:48:40 28° SE 18:51:10 21° E visible
31 Oct ? 20:29:45 10° WSW 20:32:23 27° WSW 20:32:23 27° WSW visible
01 Nov ? 18:19:27 10° SSW 18:23:58 27° SE 18:28:15 13° E visible
01 Nov ? 20:05:10 10° WSW 20:09:28 43° WNW 20:09:28 43° WNW visible
02 Nov ? 05:18:09 10° NNE 05:19:55 11° NNE 05:21:37 10° NE visible
02 Nov ? 19:40:36 10° WSW 19:46:04 50° NW 19:46:34 49° NNW visible
03 Nov ? 04:53:04 10° NNE 04:55:11 12° NNE 04:57:14 10° NE visible
03 Nov ? 19:16:01 10° WSW 19:21:20 50° NW 19:23:41 33° NNE visible
04 Nov ? 04:28:01 10° N 04:30:27 12° NNE 04:32:45 10° NE visible
04 Nov ? 18:51:26 10° WSW 18:56:35 49° NW 19:00:46 19° NNE visible
05 Nov ? 04:02:59 10° N 04:05:39 13° NNE 04:08:13 10° ENE visible
05 Nov ? 18:26:51 10° WSW 18:31:50 49° NW 18:37:39 10° NE visible
